FENGYUN 1C DEB

Satellite information

Favourite Embed

Satellite Type and Status

DEBRISIN ORBIT

Key statistics

Satellite FENGYUN 1C DEB at a glance.

Uptime

9556

Days in orbit

Revolutions

≈ 14.1

Per day

Orbit

SSO

Sun Synchronous Orbit

Inclination

99.1

Latest

Satellite identification and parameters

Extended collection of information and parameters for FENGYUN 1C DEB.

Object identification

Identified? True

Debris? True

Object name: FENGYUN 1C DEB

International designator: 1999-025XA

Object number (NORAD): 30241

Object ID (CCSDS): 30241

Country: PEOPLES REPUBLIC OF CHINA (PRC)

Current information (Y/N): Y

RCS size: SMALL

Orbital parameters

Period: 102.178 minutes

Inclination: 99.1291 deg

SMA: 7239.875 km

Apoapsis: 967.99 km

Periapsis: 755.49 km

RAAN: 318.4649 deg

Eccentricy: 0.0146757

Argument of periapsis: 164.1087 deg

Mean anomaly: 323.318 deg

Mean motion: 14.09308866 rev/day

Mean motion (dot): 0.00000475 rev/day2

B* drag term: 0.00027014 1/REarth

Two-line elements (TLE)

Creation date: July 7, 2025, 5:18 a.m.

Reference frame: TEME

Reference center: EARTH

Epoch: July 6, 2025, 11:13 p.m. UTC

TLE line 0: 0 FENGYUN 1C DEB

TLE line 1: 1 30241U 99025XA 25187.96743619 .00000475 00000-0 27014-3 0 9996

TLE line 2: 2 30241 99.1291 318.4649 0146757 164.1087 323.3180 14.09308866946751

Live tracking on map

Real-time ground track for satellite FENGYUN 1C DEB.

In-orbit conjunctions

A list of the most updated potential collisions computed for object FENGYUN 1C DEB.

Target Orbit TCA Probability of collision Miss distance Type
TEMISAT LEO 2025-06-16 03:44:47 0.00116915 980.0 (m) PAYLOAD
WEOS SSO 2024-09-11 13:03:45 0.0001014145 951.0 (m) PAYLOAD

Associated space launch

Chinese polar orbiting meteorological satellite

FENGYUN 1C DEB was lifted into orbit during the mission ‘Long March 4B | Feng Yun 1C’, on board a Long March 4B space rocket.

The launch took place on May 10, 1999, 1:33 a.m. from Launch Complex 7.

For more information about the launch, click the button.

Launch to space Long March 4B | Feng Yun 1C
Long March 4B | Feng Yun 1C

Agency: N/A

Status: Launch Successful

Launch date: May 10, 1999, 1:33 a.m. UTC

Rocket: Long March 4B

Launch pad: Launch Complex 7

Location: Taiyuan Satellite Launch Center, People's Republic of China

...

Latest news about this satellite

There are no fresh news available about this satellite. Check back as we update our databases every day.


Newsletter sign-up

Weekly statistics, charts and insights to help you stay on top of the space industry.